YAOGAN 8

Satellite information

Favourite Embed

Satellite Type and Status

PAYLOADIN ORBIT

Key statistics

Satellite YAOGAN 8 at a glance.

Uptime

5843

Days in orbit

Revolutions

≈ 13.1

Per day

Orbit

SSO

Sun Synchronous Orbit

Inclination

100.2

Latest

Satellite identification and parameters

Extended collection of information and parameters for YAOGAN 8.

Object identification

Identified? True

Debris? False

Object name: YAOGAN 8

International designator: 2009-072A

Object number (NORAD): 36121

Object ID (CCSDS): 36121

Country: PEOPLES REPUBLIC OF CHINA (PRC)

Current information (Y/N): Y

RCS size: LARGE

Orbital parameters

Period: 110.339 minutes

Inclination: 100.2406 deg

SMA: 7620.414 km

Apoapsis: 1258.58 km

Periapsis: 1225.979 km

RAAN: 236.7721 deg

Eccentricy: 0.00213908

Argument of periapsis: 22.9208 deg

Mean anomaly: 337.2849 deg

Mean motion: 13.05073205 rev/day

Mean motion (dot): -0.00000002 rev/day2

B* drag term: 0.00012277305 1/REarth

Two-line elements (TLE)

Creation date: Dec. 14, 2025, 3:07 a.m.

Reference frame: TEME

Reference center: EARTH

Epoch: Dec. 13, 2025, 4:05 p.m. UTC

TLE line 0: 0 YAOGAN 8

TLE line 1: 1 36121U 09072A 25347.67032996 -.00000002 00000-0 12277-3 0 9999

TLE line 2: 2 36121 100.2406 236.7721 0021391 22.9208 337.2849 13.05073205764475

Live tracking on map

Real-time ground track for satellite YAOGAN 8.

In-orbit conjunctions

There are no conjunctions computed for YAOGAN 8, at the moment. Check back to stay up to date, as we update our databases every day.

Go to all conjunctions

Associated space launch

Believed to be a surveillance satellite to track and locate naval ships.

YAOGAN 8 was lifted into orbit during the mission ‘Long March 4C | Yaogan Weixing 8’, on board a Long March 4C space rocket.

The launch took place on Dec. 15, 2009, 2:31 a.m. from Launch Complex 9.

For more information about the launch, click the button.

Launch to space Long March 4C | Yaogan Weixing 8
Long March 4C | Yaogan Weixing 8

Agency: N/A

Status: Launch Successful

Launch date: Dec. 15, 2009, 2:31 a.m. UTC

Rocket: Long March 4C

Launch pad: Launch Complex 9

Location: Taiyuan Satellite Launch Center, People's Republic of China

...

Latest news about this satellite

There are no fresh news available about this satellite. Check back as we update our databases every day.


Newsletter sign-up

Weekly statistics, charts and insights to help you stay on top of the space industry.